Probability
0 13 35 32 42 42 61 58 61 58 61 65 71 58 52 55 61 58 61 52 58 58 58 65 55 61 58 52 52 45 45 48 45 42 35 42 58 55 48 52 45 39 42
3 19 35 39 45 42 48 55 65 61 61 61 61 48 45 45 48 52 52 48 52 55 61 65 55 58 52 48 52 45 42 39 39 39 32 29 32 35 35 45 48 29 39
10 19 32 39 39 42 48 52 55 61 61 58 55 45 45 39 42 48 48 52 48 52 55 58 58 55 52 48 45 39 48 42 35 29 16 3 16 29 45 42 39 42 32
19 19 26 39 39 45 42 45 45 52 55 52 48 48 45 42 45 42 52 48 35 39 45 45 52 52 52 52 48 48 42 35 26 13 0 0 10 32 35 42 42 45 35
19 19 26 39 42 45 45 48 42 52 52 45 42 42 42 42 45 39 35 39 39 35 48 45 39 45 42 45 42 42 35 26 16 0 0 0 6 29 35 39 42 39 35
16 19 26 35 42 42 48 42 42 42 42 45 42 39 35 35 35 35 35 35 35 39 39 32 35 39 35 39 32 35 32 16 0 0 0 0 6 26 35 35 32 32 32
10 19 23 35 39 32 42 45 39 39 42 45 39 29 39 26 26 35 35 32 35 26 35 35 29 29 29 32 29 23 19 10 0 0 0 0 13 26 29 29 29 19 29
10 16 26 35 39 32 32 42 45 42 42 42 35 35 35 23 23 29 26 29 29 29 32 29 29 26 19 26 26 19 13 10 0 0 0 0 19 23 23 19 23 23 23
13 16 16 16 26 35 39 42 42 35 35 26 29 29 32 23 13 23 19 26 23 19 19 23 23 19 19 23 26 16 13 3 0 0 0 0 16 10 13 13 19 19 19
10 13 13 13 13 19 23 32 32 35 32 29 26 29 26 16 10 13 10 13 23 13 13 16 16 16 13 19 19 6 10 3 0 0 0 0 13 6 6 13 16 13 13
6 10 10 13 13 13 10 26 19 26 23 13 13 16 16 0 0 3 6 10 13 6 10 10 10 6 3 6 13 6 0 0 0 0 0 6 10 10 6 6 10 10 13
3 10 6 6 10 10 10 6 3 6 3 6 3 0 0 0 0 0 6 10 6 3 3 3 6 3 0 0 0 3 0 0 0 0 0 10 13 13 10 13 10 10 13
3 3 3 3 3 3 0 0 0 0 0 0 0 0 0 0 0 0 0 0 0 0 0 0 0 0 0 0 0 0 0 0 0 0 0 6 6 13 13 13 10 6 10
0 0 0 0 0 0 0 0 0 0 0 0 0 0 0 0 0 0 0 0 0 0 0 0 0 0 0 0 0 0 0 0 0 0 0 6 6 6 13 10 10 3 0
0 0 0 0 0 0 0 0 0 0 0 0 0 0 0 0 0 0 0 0 0 0 0 0 0 0 0 0 0 0 0 0 0 0 0 3 6 6 6 13 3 0 3
0 0 0 0 0 0 0 0 0 0 0 0 0 0 0 0 0 0 0 0 0 0 0 0 0 0 0 0 0 0 0 0 0 0 0 0 3 13 10 0 3 3 6
0 0 0 0 0 0 0 0 0 0 0 0 0 0 0 0 0 0 0 0 0 0 0 0 0 0 0 0 0 0 0 0 0 0 0 0 0 0 6 6 0 0 6
0 0 0 0 0 0 0 0 0 0 0 0 0 0 0 0 0 0 0 0 0 0 0 0 0 0 0 0 0 0 0 0 0 0 0 0 0 0 3 6 0 3 3
0 0 0 0 0 0 0 0 0 0 0 0 0 0 0 0 0 0 0 0 0 0 0 0 0 0 0 0 0 0 0 0 0 0 0 0 0 0 0 0 0 3 6
0 0 0 0 0 0 0 0 0 0 0 0 0 0 0 0 0 0 0 0 0 0 0 0 0 0 0 0 0 0 0 0 0 0 0 0 0 0 0 0 0 0 6
0 0 0 0 0 0 0 0 0 0 0 0 0 0 0 0 0 0 0 0 0 0 0 0 0 0 0 0 0 0 0 0 0 0 0 0 0 0 0 0 0 0 0
0 0 0 0 0 0 0 0 0 0 0 0 0 0 0 0 0 0 0 0 0 0 0 0 0 0 0 0 0 0 0 0 0 0 0 0 0 0 0 0 0 0 0
0 0 0 0 0 0 0 0 0 0 0 0 0 0 0 0 0 0 0 0 0 0 0 0 0 0 0 0 0 0 0 0 0 0 0 0 0 0 0 0 0 0 0
0 0 0 0 0 0 0 0 0 0 0 0 0 0 0 0 0 0 0 0 0 0 0 0 0 0 0 0 0 0 0 0 0 0 0 0 0 0 0 0 0 0 0
0 0 0 0 0 0 0 0 0 0 0 0 0 0 0 0 0 0 0 0 0 0 0 0 0 0 0 0 0 0 0 0 0 0 0 0 0 0 0 0 0 0 0
0 0 0 0 0 0 0 0 0 0 0 0 0 0 0 0 0 0 0 0 0 0 0 0 0 0 0 0 0 0 0 0 0 0 0 0 0 0 0 0 0 0 0
Height
5872 5872 5872 5872 5872 5872 5872 5872 5872 5872 5872 5872 5872 5872 5872 5872 5872 5872 5872 5872 5872 5872 5872 5873 5873 5873 5873 5873 5873 5873 5873 5873 5873 5873 5872 5872 5873 5875 5875 5876 5876 5877 5877
5872 5872 5872 5872 5871 5871 5871 5871 5871 5871 5871 5871 5871 5871 5871 5871 5871 5871 5871 5871 5871 5871 5872 5872 5872 5872 5872 5872 5872 5872 5872 5872 5873 5873 5873 5873 5873 5874 5874 5875 5875 5876 5876
5871 5871 5871 5871 5871 5871 5871 5871 5871 5871 5871 5871 5871 5870 5870 5870 5870 5870 5870 5870 5870 5871 5871 5871 5871 5871 5871 5871 5871 5871 5871 5872 5872 5872 5872 5872 5873 5873 5873 5873 5874 5874 5874
5870 5870 5870 5870 5870 5870 5870 5870 5870 5870 5870 5870 5870 5870 5870 5870 5869 5869 5869 5869 5869 5869 5870 5870 5870 5870 5870 5870 5870 5870 5870 5870 5871 5871 5871 5871 5871 5872 5872 5872 5872 5872 5873
5870 5870 5870 5870 5870 5869 5869 5869 5869 5869 5869 5869 5869 5869 5869 5869 5868 5868 5868 5868 5868 5868 5868 5868 5868 5868 5868 5869 5869 5869 5869 5869 5869 5870 5870 5870 5870 5870 5870 5871 5871 5871 5871
5869 5869 5869 5869 5869 5869 5868 5868 5868 5869 5869 5868 5868 5868 5868 5867 5867 5867 5867 5867 5867 5867 5867 5867 5867 5867 5867 5867 5867 5867 5867 5867 5868 5868 5868 5868 5868 5869 5869 5869 5869 5869 5869
5869 5868 5868 5868 5868 5868 5867 5867 5867 5867 5867 5867 5867 5867 5866 5866 5866 5865 5865 5865 5865 5865 5865 5865 5865 5865 5865 5865 5865 5865 5865 5865 5866 5866 5866 5866 5867 5867 5867 5867 5867 5867 5867
5868 5867 5867 5867 5867 5867 5866 5866 5866 5866 5866 5866 5865 5865 5865 5864 5864 5864 5864 5864 5864 5864 5864 5864 5864 5864 5863 5863 5863 5864 5864 5864 5864 5864 5864 5864 5864 5864 5865 5865 5865 5865 5865
5867 5866 5866 5866 5866 5865 5865 5865 5865 5865 5864 5864 5864 5863 5863 5863 5862 5862 5862 5862 5862 5862 5862 5862 5862 5861 5862 5862 5862 5862 5862 5861 5862 5862 5862 5862 5862 5862 5862 5862 5862 5862 5862
5865 5865 5865 5865 5864 5864 5864 5864 5863 5863 5863 5862 5862 5862 5862 5861 5861 5861 5860 5860 5860 5860 5860 5860 5860 5860 5860 5860 5860 5860 5860 5859 5859 5860 5860 5860 5859 5859 5859 5859 5859 5859 5859
5864 5864 5863 5863 5863 5863 5862 5862 5862 5862 5861 5861 5861 5860 5860 5860 5859 5859 5859 5858 5858 5858 5858 5858 5858 5857 5857 5857 5857 5857 5857 5857 5857 5857 5857 5857 5857 5857 5857 5857 5856 5856 5856
5862 5862 5862 5861 5861 5861 5861 5861 5860 5860 5860 5859 5859 5859 5858 5858 5858 5857 5857 5856 5856 5855 5855 5855 5856 5855 5855 5855 5855 5855 5855 5854 5854 5854 5854 5854 5854 5854 5854 5854 5854 5853 5853
5860 5860 5860 5860 5860 5860 5859 5859 5859 5858 5858 5857 5857 5857 5856 5856 5856 5855 5855 5854 5854 5853 5853 5853 5853 5853 5853 5853 5853 5852 5852 5852 5852 5851 5851 5851 5851 5851 5851 5851 5851 5850 5850
5858 5858 5858 5858 5858 5858 5858 5857 5857 5857 5856 5856 5855 5855 5854 5854 5854 5853 5853 5852 5852 5852 5851 5851 5851 5851 5851 5850 5850 5850 5850 5849 5849 5849 5848 5848 5848 5848 5848 5848 5848 5847 5847
5857 5857 5857 5857 5856 5856 5856 5856 5855 5855 5854 5854 5853 5853 5852 5852 5851 5851 5850 5850 5850 5849 5849 5849 5849 5848 5848 5848 5847 5847 5847 5847 5846 5846 5845 5845 5845 5844 5844 5844 5844 5843 5843
5855 5855 5855 5855 5854 5854 5854 5854 5853 5853 5853 5852 5852 5851 5850 5850 5849 5849 5848 5848 5847 5847 5847 5846 5846 5846 5846 5845 5845 5845 5844 5844 5843 5843 5842 5842 5841 5841 5841 5840 5840 5839 5838
5854 5853 5853 5853 5853 5852 5852 5852 5852 5851 5851 5850 5849 5849 5848 5847 5847 5846 5846 5845 5845 5845 5844 5844 5843 5843 5843 5843 5842 5842 5842 5841 5840 5840 5839 5839 5838 5838 5837 5837 5836 5835 5833
5852 5852 5851 5851 5851 5850 5850 5850 5850 5849 5848 5848 5847 5846 5845 5845 5844 5843 5843 5843 5842 5842 5841 5841 5841 5840 5840 5840 5839 5839 5838 5838 5837 5837 5836 5836 5835 5834 5834 5833 5833 5832 5830
5850 5850 5850 5849 5849 5848 5848 5848 5847 5847 5846 5845 5844 5844 5843 5842 5841 5841 5840 5840 5840 5839 5839 5839 5838 5838 5837 5837 5836 5836 5835 5835 5834 5834 5833 5832 5831 5831 5830 5830 5829 5829 5828
5848 5848 5848 5847 5846 5846 5846 5845 5845 5844 5844 5843 5842 5841 5840 5840 5839 5838 5837 5837 5837 5837 5836 5836 5835 5835 5834 5834 5833 5833 5832 5831 5831 5830 5829 5828 5828 5827 5827 5826 5826 5826 5825
5846 5846 5845 5845 5844 5844 5843 5843 5842 5842 5841 5840 5839 5838 5837 5837 5836 5835 5835 5834 5834 5834 5833 5833 5832 5832 5831 5830 5830 5829 5828 5828 5827 5826 5825 5824 5824 5823 5823 5822 5822 5822 5822
5844 5844 5843 5842 5842 5841 5841 5840 5840 5839 5838 5837 5837 5836 5835 5834 5833 5832 5832 5831 5831 5830 5830 5829 5829 5828 5827 5826 5826 5825 5824 5824 5822 5822 5821 5820 5819 5819 5819 5818 5818 5818 5818
5842 5841 5841 5840 5839 5839 5838 5837 5837 5836 5835 5835 5834 5833 5832 5831 5830 5830 5829 5828 5827 5826 5826 5825 5825 5824 5823 5822 5821 5821 5820 5819 5818 5817 5816 5815 5815 5814 5814 5814 5813 5813 5813
5839 5838 5838 5837 5836 5836 5835 5834 5834 5833 5832 5831 5831 5830 5829 5828 5827 5826 5825 5824 5824 5823 5822 5821 5820 5819 5818 5817 5816 5815 5815 5814 5813 5812 5812 5811 5810 5810 5809 5809 5809 5809 5808
5835 5835 5834 5834 5833 5832 5832 5831 5831 5830 5829 5828 5827 5826 5825 5824 5823 5822 5821 5820 5820 5819 5818 5817 5816 5814 5813 5812 5811 5810 5809 5809 5808 5807 5806 5806 5805 5804 5804 5804 5804 5804 5804
5832 5832 5831 5831 5830 5829 5829 5828 5827 5826 5825 5824 5823 5822 5821 5820 5819 5818 5817 5816 5815 5814 5813 5812 5811 5810 5808 5807 5806 5804 5804 5803 5802 5801 5801 5800 5800 5800 5799 5798 5798 5798 5798
Wind_Speed
1 1 1 2 2 2 2 2 2 3 3 3 3 3 3 3 4 4 4 5 5 4 4 5 5 5 5 5 5 5 5 5 5 4 4 4 5 6 6 6 7 8 8
1 1 2 2 3 3 3 3 3 3 3 3 3 3 4 4 5 5 5 5 5 5 5 5 5 6 6 6 6 6 6 6 6 5 5 5 6 6 7 7 7 8 8
2 2 2 3 3 3 4 4 3 3 3 4 4 4 5 5 5 5 5 6 6 6 6 6 6 6 7 7 7 7 7 7 7 7 6 6 6 7 7 7 8 9 9
2 3 3 3 3 4 4 4 3 3 4 4 4 5 5 5 5 5 6 6 6 6 6 6 6 6 7 7 8 8 8 8 8 8 7 7 7 7 7 8 8 9 9
3 3 4 4 4 4 4 4 4 4 4 4 5 5 6 6 6 6 6 7 7 7 7 7 7 7 7 8 8 9 9 9 9 9 9 9 8 9 8 8 9 9 9
3 4 5 5 5 5 5 5 5 5 5 5 5 6 6 7 7 7 7 7 7 8 8 8 8 8 8 8 8 9 9 9 10 10 10 9 10 10 9 9 9 9 10
4 4 5 5 5 5 5 6 6 6 6 6 6 6 7 7 7 7 8 8 7 8 8 8 8 9 9 8 9 9 9 9 10 10 10 10 10 10 10 10 10 10 10
5 5 5 5 5 5 5 6 6 7 7 7 7 7 7 8 8 8 8 8 8 8 8 8 9 9 9 9 9 9 9 9 9 9 10 10 11 11 11 11 11 11 11
5 6 6 6 5 5 5 6 6 7 7 7 7 7 8 8 8 8 8 8 9 9 9 9 9 10 9 10 10 10 10 11 10 10 11 11 11 11 12 12 12 12 12
6 6 6 6 6 5 6 6 6 6 7 7 7 7 8 8 8 8 8 8 8 9 9 9 10 10 10 10 11 11 11 11 11 11 12 12 12 12 12 12 13 12 13
6 6 7 6 6 6 6 6 6 7 7 7 7 7 7 8 8 8 8 8 9 9 9 9 10 10 11 11 11 12 12 12 12 13 13 12 12 12 12 13 13 14 13
7 7 6 6 6 6 7 7 7 7 7 7 7 8 8 8 8 8 8 9 9 9 9 9 10 11 11 12 12 13 13 13 13 13 13 13 14 14 14 14 14 14 14
7 7 7 6 6 7 7 7 7 8 7 8 8 8 8 9 9 9 9 9 9 9 9 9 10 11 11 12 12 12 12 12 13 13 14 14 14 14 15 15 15 15 15
7 6 6 7 7 7 7 7 7 8 7 8 8 8 9 10 10 10 10 10 9 9 9 10 10 11 12 12 12 12 12 12 13 13 14 14 15 15 16 16 16 16 16
7 7 6 7 7 7 7 7 7 7 7 8 9 10 10 11 11 11 11 11 10 10 10 11 11 11 12 11 11 11 12 13 13 14 14 15 16 16 16 16 17 17 17
7 7 7 7 7 7 7 7 7 8 8 8 9 10 11 11 12 12 12 11 10 11 11 11 11 11 11 11 11 11 11 12 13 14 14 15 16 16 16 16 17 17 18
7 7 7 7 7 8 8 8 9 9 9 9 10 11 12 12 12 12 12 12 11 11 11 11 11 12 11 11 12 12 12 12 12 12 13 14 15 16 16 16 16 17 17
7 7 8 8 8 9 9 9 9 10 10 10 10 11 12 12 12 12 12 12 12 12 11 12 12 12 12 12 12 12 13 13 13 13 14 14 15 15 16 16 16 15 16
7 8 8 9 9 10 10 10 10 10 11 11 11 12 12 11 12 12 12 12 12 12 12 12 12 12 13 13 13 13 14 14 14 14 15 15 15 16 15 15 15 15 15
7 8 8 9 9 9 9 9 9 10 10 11 11 11 12 12 12 12 12 12 12 12 12 12 12 12 13 13 14 14 15 15 15 15 16 16 16 16 16 15 15 15 15
8 8 9 9 9 9 9 9 10 10 10 10 10 11 11 12 12 13 13 13 12 13 14 13 14 14 14 14 14 15 15 16 16 16 16 16 15 15 16 15 15 15 15
9 9 9 10 10 10 10 10 10 10 10 11 11 11 12 12 12 12 13 13 13 14 15 14 15 15 15 15 16 15 16 16 16 17 17 17 16 16 16 16 16 16 16
10 10 10 11 11 11 11 11 11 11 11 12 12 13 13 13 13 14 13 12 13 14 15 15 16 16 17 17 17 17 17 17 17 17 17 17 17 17 16 16 16 16 16
11 11 11 11 11 12 12 12 12 12 12 12 13 13 14 14 15 14 14 14 15 15 15 16 17 17 18 18 18 18 18 18 18 18 18 18 18 18 17 17 17 17 17
12 12 12 12 12 12 12 12 13 13 13 13 14 14 15 15 16 16 15 15 16 16 16 17 17 18 18 18 19 18 18 19 19 18 18 18 18 18 18 18 17 17 17
13 13 13 13 12 13 13 13 13 14 14 14 15 15 16 16 16 16 16 16 17 17 18 18 18 19 19 19 19 20 20 20 19 19 19 19 19 19 18 18 18 18 18
Wind_Direction
243 282 286 293 304 304 292 297 310 314 314 322 328 331 327 317 314 304 304 306 303 303 300 298 298 294 287 282 283 280 285 284 282 278 273 248 242 245 250 251 252 253 252
251 271 275 286 300 296 288 286 289 300 305 307 314 317 307 299 304 302 299 300 299 298 296 293 288 286 284 280 278 280 280 282 283 282 272 261 253 254 256 255 256 258 256
251 272 287 292 302 298 287 279 284 290 300 304 305 306 303 300 302 297 296 294 293 292 293 293 288 284 283 279 278 278 279 280 282 280 271 266 265 264 259 259 262 262 261
264 279 291 295 297 292 289 287 286 290 300 303 301 301 305 302 300 298 297 294 290 290 294 291 289 283 281 281 278 277 275 276 278 278 273 269 267 265 265 265 269 269 267
285 283 286 288 289 286 283 285 284 286 292 297 299 297 296 296 296 294 296 292 289 287 287 287 286 283 281 281 280 278 276 275 274 272 272 269 265 265 268 271 275 272 270
282 284 286 287 290 282 280 281 283 283 289 295 301 300 294 290 291 291 289 288 286 284 283 282 284 282 281 281 281 279 277 273 271 270 270 270 267 267 270 272 275 274 274
283 286 285 288 288 281 281 281 282 282 285 292 294 296 293 290 287 287 285 285 283 285 284 283 283 281 279 279 279 278 278 274 271 270 269 269 269 266 268 272 273 274 276
290 291 289 291 293 290 287 287 285 284 284 286 288 289 289 288 285 283 285 282 282 284 283 282 281 277 276 276 276 275 275 273 270 270 270 270 270 269 269 272 272 272 275
288 290 292 290 291 291 294 291 292 291 289 289 289 290 288 285 284 283 285 283 278 279 281 277 278 272 272 273 273 273 275 272 271 270 270 272 274 273 272 275 276 272 272
284 287 289 290 285 286 289 294 296 294 294 294 293 294 295 290 285 285 288 288 284 280 278 276 277 270 271 270 271 272 275 273 274 272 272 273 273 273 274 275 276 274 276
285 288 289 285 281 283 285 289 292 290 290 292 289 290 292 289 287 288 288 287 287 283 279 278 277 276 273 270 270 270 271 272 275 274 273 273 272 272 274 277 276 277 277
284 284 286 283 279 278 279 284 287 288 289 291 288 285 287 288 286 286 287 287 285 284 281 278 276 276 277 275 275 273 271 272 273 275 274 272 272 273 273 275 275 276 279
284 282 279 277 282 280 279 280 284 287 289 290 288 284 286 287 285 284 287 287 283 279 278 276 276 279 280 279 279 275 274 275 277 276 274 273 273 273 273 275 275 277 279
283 282 279 278 281 279 278 281 284 289 289 291 291 287 287 286 283 283 284 284 283 281 280 280 281 283 282 280 278 276 275 275 276 276 276 276 276 275 274 273 273 276 277
280 282 283 282 283 278 277 284 288 290 289 289 292 290 287 285 285 284 283 281 283 284 283 284 284 284 282 280 279 279 278 278 277 275 276 277 277 278 279 277 275 275 275
274 278 279 277 277 277 278 281 283 286 291 289 289 288 286 285 285 285 283 282 283 285 287 287 287 287 284 281 281 282 283 282 279 277 278 278 278 279 280 278 278 277 274
269 268 271 275 274 275 278 279 279 287 293 290 287 285 287 288 285 286 285 284 285 286 285 285 283 283 283 283 283 281 281 282 282 282 279 279 281 282 281 279 279 279 276
266 263 269 272 275 278 282 283 282 287 292 290 287 286 289 289 287 286 286 284 283 284 284 283 282 280 280 282 283 282 283 283 281 281 281 282 282 282 281 280 279 276 272
270 271 273 275 277 279 283 284 283 284 286 288 290 289 286 288 288 284 284 286 284 282 284 286 282 279 281 283 283 284 286 285 282 282 283 282 281 280 282 283 280 275 269
276 282 283 285 287 290 290 289 289 290 289 288 290 289 287 287 287 285 283 284 282 281 282 284 282 281 281 283 283 284 285 284 283 284 284 282 280 278 278 279 279 275 271
278 283 285 288 292 293 291 289 290 290 292 293 295 296 294 292 290 286 283 280 279 281 282 283 283 283 284 283 283 283 284 284 285 285 284 284 282 279 275 274 273 272 272
282 284 284 287 290 291 290 288 287 288 289 290 290 291 294 295 295 294 289 281 281 282 280 281 283 284 284 284 283 283 285 286 286 286 286 285 283 281 278 276 274 271 269
280 282 283 285 287 289 288 286 285 288 290 289 289 288 288 289 292 293 291 288 288 286 284 282 281 283 283 284 284 284 284 285 286 285 284 283 282 281 280 278 277 274 270
275 279 282 285 287 287 288 286 285 285 288 288 288 287 287 288 289 289 288 287 288 288 286 283 284 284 284 284 283 283 283 283 284 284 283 281 279 279 278 276 274 272 271
271 274 280 284 287 287 285 285 286 286 288 288 287 287 288 289 290 290 288 287 286 285 285 285 287 286 284 283 283 283 283 283 282 282 282 281 280 278 277 276 272 271 272
269 272 276 279 282 285 285 286 287 288 289 290 289 288 291 291 291 291 290 287 285 284 284 284 286 286 285 284 284 283 282 282 282 280 279 278 279 278 278 277 273 270 271